Location: Invercargill
(46.4000°S, 168.3500°E)
Time: 22:41:50
(UTC+13:00)

Cosmos 2237 Rocket - Pass Details

Date: 24 January 2019
Orbit: 833 x 851 km, 71.0° (Epoch: 20 February)

Event Time Altitude Azimuth Distance (km) Brightness Sun altitude
Exits shadow 23:51:00 19° 79° (E) 1,942 3.7 -18.3°
Maximum altitude 23:51:08 19° 81° (E) 1,941 3.7 -18.3°
Drops below altitude 10° 23:54:57 10° 123° (ESE) 2,489 4.7 -18.7°
Sets 23:58:07 0° 140° (SE) 3,430 5.6 -19.0°
